This is the latest recevied weather packets stored in our database for station/object 4S6DRJ-13. If no packets are shown the sender has not sent any weather packets the latest 10 day(s).
| Time | Temp. | Humidity | Pressure | Rain* | Wind** | Luminosity | Snow |
|---|---|---|---|---|---|---|---|
| 1788169755 | 30.56° C | 70% | 1007.1 hPa | 0 mm | 2.68 m/s, 215° | 793 W/m² | - |
| 1788169694 | 30.56° C | 71% | 1007 hPa | 0 mm | 2.24 m/s, 262° | 786 W/m² | - |
| 1788169633 | 30.56° C | 71% | 1007 hPa | 0 mm | 1.79 m/s, 199° | 819 W/m² | - |
| 1788169572 | 30.56° C | 71% | 1006.9 hPa | 0 mm | 2.68 m/s, 298° | 800 W/m² | - |
| 1788169511 | 30.56° C | 70% | 1006.9 hPa | 0 mm | 1.79 m/s, 273° | 408 W/m² | - |
| 1788169451 | 30.56° C | 71% | 1006.9 hPa | 0 mm | 3.13 m/s, 190° | 197 W/m² | - |
| 1788169389 | 31.11° C | 70% | 1006.9 hPa | 0 mm | 2.68 m/s, 356° | 539 W/m² | - |
| 1788169328 | 31.11° C | 71% | 1006.9 hPa | 0 mm | 2.68 m/s, 350° | 855 W/m² | - |
| 1788169267 | 31.11° C | 70% | 1006.7 hPa | 0 mm | 3.13 m/s, 225° | 296 W/m² | - |
| 1788169206 | 31.11° C | 70% | 1007 hPa | 0 mm | 0.89 m/s, 233° | 235 W/m² | - |
| 1788169145 | 31.11° C | 71% | 1006.9 hPa | 0 mm | 2.24 m/s, 326° | 218 W/m² | - |
| 1788169085 | 31.11° C | 71% | 1007.1 hPa | 0 mm | 1.79 m/s, 319° | 274 W/m² | - |
| 1788169023 | 31.11° C | 71% | 1007 hPa | 0 mm | 2.24 m/s, 314° | 886 W/m² | - |
| 1788168962 | 31.11° C | 71% | 1006.8 hPa | 0 mm | 0.89 m/s, 174° | 250 W/m² | - |
| 1788168902 | 31.11° C | 71% | 1007 hPa | 0 mm | 0.45 m/s, 332° | 816 W/m² | - |
| 1788168840 | 31.67° C | 69% | 1007.1 hPa | 0 mm | 2.24 m/s, 196° | 891 W/m² | - |
| 1788168779 | 31.67° C | 68% | 1006.9 hPa | 0 mm | 1.79 m/s, 246° | 396 W/m² | - |
| 1788168718 | 31.67° C | 69% | 1007 hPa | 0 mm | 2.24 m/s, 259° | 733 W/m² | - |
| 1788168657 | 31.67° C | 69% | 1006.9 hPa | 0 mm | 2.68 m/s, 178° | 826 W/m² | - |
| 1788168596 | 31.67° C | 69% | 1006.8 hPa | 0 mm | 0.89 m/s, 302° | 792 W/m² | - |
| 1788168535 | 31.67° C | 68% | 1007.1 hPa | 0 mm | 1.34 m/s, 228° | 584 W/m² | - |
| 1788168474 | 31.67° C | 69% | 1006.8 hPa | 0 mm | 2.68 m/s, 348° | 860 W/m² | - |
| 1788168413 | 31.67° C | 70% | 1007.2 hPa | 0 mm | 1.34 m/s, 199° | 905 W/m² | - |
| 1788168352 | 31.67° C | 70% | 1006.9 hPa | 0 mm | 1.34 m/s, 238° | 268 W/m² | - |
| 1788168291 | 31.67° C | 70% | 1007 hPa | 0 mm | 2.68 m/s, 81° | 908 W/m² | - |
* Rain latest hour (hover to see other rain measurements)
** Current wind speed in m/s (hover to see current wind gust speed)